www.pogodaiklimat.ru
ПОГОДА в Смирне
Время
и дата
20:56 13.07
21:56 13.07
22:56 13.07
23:56 13.07
00:56 14.07
01:56 14.07
02:56 14.07
03:56 14.07
04:56 14.07
05:56 14.07
06:56 14.07
07:56 14.07
08:56 14.07
09:56 14.07
10:56 14.07
11:56 14.07
12:56 14.07
13:56 14.07
14:56 14.07
15:56 14.07
16:56 14.07
17:56 14.07
18:56 14.07
19:56 14.07
20:56 14.07
21:56 14.07
22:56 14.07
23:56 14.07
00:56 15.07
01:56 15.07
02:56 15.07
03:56 15.07
04:56 15.07
05:56 15.07
06:56 15.07
07:56 15.07
08:56 15.07
09:56 15.07
10:56 15.07
11:56 15.07
12:56 15.07
13:56 15.07
14:56 15.07
15:56 15.07
16:56 15.07
17:56 15.07
18:56 15.07
19:56 15.07
Ветер
(напр.,м/с)
Видим. Явления Облачность Т
(С)
Тd
(С)
f
(%)
Тe
(С)
Тes
(С)
Комфортность P
(гПа)
Po
(гПа)
Тmin
(С)
Tmax
(С)
R
(мм)
R24
(мм)
S
(см)
штиль 0 16 км ясно +27.2 +21.7 72 +35 +35 очень
душно
1021.8 1001.6
штиль 0 16 км ясно +26.1 +21.7 77 +34 +34 очень
душно
1021.7 1001.6
штиль 0 16 км ясно +25.0 +21.1 79 +32 +32 очень
душно
1021.9 1001.9
штиль 0 16 км ясно +23.9 +21.7 88 +31 +31 очень
душно
1021.4 1001.3 +23.9 +32.2
штиль 0 16 км ясно +23.3 +21.1 87 +31 +31 очень
душно
1021.1 1000.9
штиль 0 16 км ясно +23.3 +21.7 91 +32 +32 очень
душно
1020.6 1000.6
ЮВ 2 16 км ясно +22.2 +21.1 93 +29 +29 очень
душно
1020.7 1000.6
штиль 0 16 км ясно +21.7 +20.6 93 +27 +27 душно 1020.9 1000.6
штиль 0 16 км ясно +21.7 +20.6 93 +27 +27 душно 1021.5 1001.3
штиль 0 16 км ясно +23.3 +21.1 87 +31 +31 очень
душно
1021.8 1001.6 +21.1 +24.4
штиль 0 16 км ясно +26.1 +21.7 77 +34 +36 очень
душно
1021.7 1001.6
штиль 0 16 км ясно +29.4 +21.7 63 +37 +44 очень
душно
1021.9 1001.6
нст 2 16 км ясно +31.7 +20.6 52 +39 +48 очень
душно
1021.8 1001.6
В 3 16 км 2/2 1200 м +33.9 +20.6 46 +41 +50 опасность
перегрева
1021.5 1001.6
штиль 0 16 км ясно +34.4 +20.0 43 +40 +64 опасность
солнечного
удара
1020.9 1000.9
нст 2 16 км 5/0 2100 m
[Ac]
+34.4 +20.6 45 +41 +55 опасность
перегрева
1020.2 1000.3 +23.3 +35.6
С 5 16 км 2/0 2250 m
[Ac]
+35.6 +19.4 39 +41 +50 опасность
перегрева
1019.4 999.3
С 5 16 км ясно +36.7 +18.3 34 +41 +51 опасность
перегрева
1018.2 998.3
С 5 16 км ясно +36.7 +18.9 35 +41 +49 опасность
перегрева
1017.6 997.6
С 5 16 км 2/2 1800 м +36.1 +18.9 36 +40 +45 очень
душно
1017.6 997.6
С 4 16 км ясно +33.9 +20.0 44 +40 +45 очень
душно
1017.6 997.6
С 3 16 км ясно +32.2 +20.0 49 +39 +41 очень
душно
1018.0 997.9 +32.2 +37.8
штиль 0 16 км ясно +30.0 +21.1 59 +38 +38 очень
душно
1017.8 997.9
Ю 2 16 км ясно +30.0 +20.0 55 +36 +36 очень
душно
1017.2 997.3
Ю 2 16 км ясно +28.9 +20.6 61 +36 +36 очень
душно
1018.0 997.9
штиль 0 16 км ясно +28.3 +20.0 61 +35 +35 очень
душно
1018.1 998.3
штиль 0 16 км ясно +26.1 +21.1 74 +33 +33 очень
душно
1018.4 998.3
штиль 0 16 км ясно +24.4 +21.1 82 +31 +31 очень
душно
1018.1 997.9 +24.4 +32.8
ЮВ 2 16 км ясно +24.4 +20.6 79 +30 +30 очень
душно
1017.8 997.9
Ю 2 16 км ясно +23.3 +21.1 87 +31 +31 очень
душно
1017.4 997.6
штиль 0 11 км ясно +23.9 +21.1 84 +30 +30 очень
душно
1017.5 997.6
Ю 2 16 км ясно +22.8 +20.6 87 +30 +30 очень
душно
1017.6 997.6
Ю 3 16 км ясно +22.8 +20.6 87 +30 +30 очень
душно
1018.2 998.3
ЮВ 2 16 км ясно +24.4 +21.1 82 +31 +31 очень
душно
1018.9 998.6 +21.7 +25.6
Ю 2 16 км ясно +27.2 +21.7 72 +35 +36 очень
душно
1018.9 998.9
штиль 0 16 км ясно +28.9 +22.2 67 +38 +44 очень
душно
1018.7 998.6
СЗ 4 16 км 2/2 1200 м +31.7 +22.8 59 +41 +46 опасность
перегрева
1018.2 998.3
нст 2 16 км 5/5 1230 м +32.2 +22.2 56 +41 +48 опасность
перегрева
1017.6 997.6
ЮЗ 6 16 км 5/5 1500 м +33.9 +21.1 47 +41 +45 опасность
перегрева
1017.0 997.0
З 6 13 км ясно +35.6 +20.6 42 +42 +50 опасность
перегрева
1016.2 996.3 +24.4 +35.6
Ю 3 16 км 5/5 1950 м +35.6 +20.6 42 +42 +51 опасность
перегрева
1015.4 995.6
Ю 4 16 км 2/2 1950 м +36.1 +21.1 42 +43 +54 опасность
перегрева
1014.6 994.6
З 5
{9}
16 км 5/0 2250 m
[Ac]
+37.2 +20.0 37 +43 +48 опасность
перегрева
1013.9 994.0
ЮЗ 5 16 км ясно +37.2 +19.4 35 +42 +48 опасность
перегрева
1013.4 993.6
З 4 16 км 2/0 2100 m
[Ac]
+36.1 +19.4 38 +41 +45 опасность
перегрева
1013.2 993.3
ЮЗ 3 16 км 2/2 1800 м +35.0 +20.0 42 +41 +43 опасность
перегрева
1013.1 993.3 +35.0 +37.8
З 3 16 км ясно +33.3 +20.6 47 +40 +41 очень
душно
1013.3 993.3
ЮЗ 2 16 км 8/8 1950 м +32.2 +21.1 52 +40 +40 очень
душно
1013.9 994.0
Местоположение метеостанции Smyrna Airport: широта 36.0089 долгота -86.5200 высота над уровнем моря 166 м.
В архиве по умолчанию представлена погода в Смирне за последние 1-2 суток. Обновление информации о фактической погоде в базе происходит ежечасно! Архивные данные за месяц целиком и за предыдущие месяцы Вы можете получить, выбрав интересующий диапазон дат из раскрывающегося списка и нажав кнопку "Ввод!".
Внимание! Архив погоды МЕТАР в базе сайта по станциям, не включенным в климатический монитор, хранится не более 60 дней. Нет смысла пытаться выбрать более раннюю дату.
*Определитесь, кто Вы:
Внимание! Время в таблицах - местное (без учета летнего времени). Для получения всемирного времени необходимо вычесть поправку, которая равна -6 ч.
Смотрите также архив погоды в соседних городах и на ближайших метеорологических станциях:
Партнеры нашего сайта:      
Пояснения к столбцам:
  • Ветер - указаны скорость ветра в м/с - средняя за 10 мин, порывы в срок и между сроками (в фигурных скобках) и направление, откуда дует ветер: С - северный,
  • СВ - северо-восточный, В - восточный, ЮВ - юго-восточный, Ю - южный, ЮЗ - юго-западный, З - западный, СЗ - северо-западный.
  • Видимость - горизонтальная дальность видимости в метрах или километрах. При видимости от 1 до 10 км при отсутствии осадков обычно наблюдается дымка, при ухудшении видимости до 1 км и менее - туман. В сухую погоду видимость может ухудшаться дымом, пылью или мглою.
  • Явления - указаны атмосферные явления, наблюдавшиеся в срок или в последний час перед сроком; фигурными скобками обозначены явления, наблюдавшиеся между сроками (за 1-3 часа до срока); квадратными скобками обозначены град или гололедные отложения с указанием их диаметра в мм.
  • Облачность - указаны через наклонную черту общая и нижняя облачность в баллах и высота нижней границы облаков в метрах; квадратными скобками обозначены формы облаков: Ci - перистые, Cs - перисто-слоистые, Cc - перисто-кучевые, Ac - высококучевые, As - высокослоистые, Sc - слоисто-кучевые, Ns - слоисто-дождевые, Cu - кучевые, Cb - кучево-дождевые. Подробнее классификацию облаков см. в Атласе облаков (PDF).
  • T - Температура воздуха - температура, измеренная на высоте 2 м над землей.
  • Td - Температура точки росы - температура, при понижении до которой содержащийся в воздухе водяной пар достигнет насыщения.
  • f - Относительная влажность воздуха - влажноcть воздуха, измеренная на высоте 2 м над землей.
  • Te - Эффективная температура - температура, которую ощущает одетый по сезону человек в тени. Характеристика душности погоды. При расчете учитывается влияние влажности воздуха и скорости ветра на теплоощущения человека.
  • Tes - Эффективная температура на солнце - температура, которую ощущает человек, с поправкой на солнечный нагрев. Характеристика знойности погоды. Зависит от высоты солнца над горизонтом, облачности и скорости ветра. Ночью, в пасмурную погоду, а также при ветре 12 м/с и более поправка равна нулю.
  • P - Атмосферное давление - приведенное к уровню моря атмосферное давление.
  • Po - Атмосферное давление - измеренное на уровне метеостанции атмосферное давление.
  • Tmin - Минимальная температура - минимум температуры воздуха на высоте 2 м над землей.
  • Tmax - Максимальная температура - максимум температуры воздуха на высоте 2 м над землей.
  • R - Количество осадков - Количество выпавших осадков за период времени, мм. При наведении курсора мыши на число - период времени, за который выпало указанное количество осадков.
  • R24 - Количество осадков - Количество выпавших осадков за 24 часа, мм.
  • S - Снежный покров - Высота снежного покрова, см. При наведении курсора мыши на число - состояние снежного покрова и степень покрытия местности в баллах.